Fayetteville, WV

6:43 PM EDT on March 30, 2017 (GMT -0400)
F.I.T. - Oyler Ave. | | Change Station

Elev 1988 ft 37.99 °N, 81.15 °W | Updated 2 seconds ago

Mostly Cloudy
Mostly Cloudy
55.5 °F
Feels Like 55.5 °F
N
0.0
Wind Variable Wind from NNE
Gusts 0.0 mph

Today
High -- | Low -- °F
--% Chance of Precip.
Yesterday
High -- | Low -- °F
Precip. -- in
Pressure 29.86 in
Visibility 10.0 miles
Clouds Overcast 1400 ft
Dew Point 50 °F
Humidity 81%
Rainfall 0.00 in
Snow Depth Not available.
7:12 AM 7:45 PM
Waxing Crescent, 11% visible
METAR KBKW 302151Z AUTO 14012G25KT 10SM OVC014 11/08 A2987 RMK AO2 PK WND 16026/2056 SLP109 T01110083
Pressure 29.86 in
Visibility 10.0 miles
Clouds Overcast 1400 ft
Dew Point 50 °F
Humidity 81%
Rainfall 0.00 in
Snow Depth Not available.
7:12 AM 7:45 PM
Waxing Crescent, 11% visible
METAR KBKW 302151Z AUTO 14012G25KT 10SM OVC014 11/08 A2987 RMK AO2 PK WND 16026/2056 SLP109 T01110083

Get Severe Weather Alerts

Thanks for signing up!

Be on the lookout for a verification email in your inbox.

You'll start receiving the daily forecast at 8 AM.

×

10-Day Weather Forecast

Almanac

Astronomy

Mar. 30, 2017 Rise Set
Actual Time
Civil Twilight
Nautical Twilight
Astronomical Twilight
Moon
Length of Visible Light
Length of Day
Tomorrow will be .
, % of the Moon is Illuminated

Today's Extremes

State Highs State Lows

Community

WunderPhotos

Upload Photos

1,962,540 photos uploaded!

WunderBlog® & News

Nearby

Air Quality

  Air Quality AQ Index Pollutant
Not available.

Snow Depth

Station Depth Elevation

Earthquake Activity

City Distance Mag. Time & Date
Minimum magnitude displayed is 2.5.

Earthquake Activity

City Distance Mag. Time & Date
Minimum magnitude displayed is 2.5.

Coastal Water Temperatures

Place Temperature

Stations

Nearby Weather Stations

Station Location Temp. Windchill Dew Point Humidity Wind Precip. Elev Updated Type
                   

Watches & Warnings

There are currently no watches in effect.